Regional Weather Roundup
Issued by NWS

Home | Current Version | Previous Version | Text Only | Print | Product List | Glossary Off
Versions: 1 2 3 4 5 6 7 8 9 10 11 12 13 14 15 16 17 18 19 20 21 22 23 24 25 26 27 28 29 30 31 32 33 34 35 36 37 38 39 40 41 42 43 44 45 46 47 48 49 50

000
ASUS45 KBOU 220307
RWRCO

WEATHER ROUNDUP FOR COLORADO
NATIONAL WEATHER SERVICE DENVER/BOULDER CO
900 PM MDT SAT OCT 21 2017

NOTE: "FAIR" INDICATES FEW OR NO CLOUDS BELOW 12000 FEET WITH NO
SIGNIFICANT WEATHER AND/OR OBSTRUCTIONS TO VISIBILITY.

COZ001>005-013-030-031-220400-
...NORTHWEST COLORADO...

CITY           SKY/WX    TMP DP  RH WIND       PRES   REMARKS
CRAIG          FAIR      33  22  63 W3        30.27R
HAYDEN         FAIR      34  22  61 S3        30.29R
MEEKER         FAIR      33  26  75 E3        30.29R
RABBIT EARS PA FAIR      19  18  93 W12G23    30.26R WCI   7
STEAMBOAT SPGS FAIR      31  23  71 SW8       30.27R WCI  24
WALDEN         NOT AVBL
$$

COZ006>008-011-220400-
...WEST CENTRAL VALLEYS...

CITY           SKY/WX    TMP DP  RH WIND       PRES   REMARKS
GRAND JUNCTION FAIR      46  11  24 N8        30.28R
MONTROSE       FAIR      38  16  40 S9        30.34R
EAGLE          FAIR      32  23  69 E7        30.32R WCI  26
RIFLE          FAIR      37  26  64 E3        30.29R
DELTA          FAIR      46  10  23 CALM      30.30R
NUCLA          FAIR      41   3  20 CALM      30.35R
$$

COZ017>023-064>068-220400-
...SOUTHWEST COLORADO...

CITY           SKY/WX    TMP DP  RH WIND       PRES   REMARKS
DURANGO        FAIR      41   3  20 SW8       30.25R
CORTEZ         FAIR      38   7  27 CALM      30.30R
PAGOSA SPRINGS FAIR      35   3  26 NE5       30.28R WCI  31
TELLURIDE      FAIR      32  14  48 SE5       30.37R WCI  27
WOLF CREEK PAS FAIR      23   0  36 S10       30.40R WCI  12
$$

COZ009-010-012-014-032>034-037-058>063-220400-
...CENTRAL COLORADO...

CITY           SKY/WX    TMP DP  RH WIND       PRES   REMARKS
ASPEN          FAIR      28  22  78 SW6       30.32R WCI  22
BUENA VISTA    FAIR      35  10  35 W8        30.26R WCI  29
COPPER MTN     FAIR      19  10  68 MISG      30.31R
BERTHOUD PASS  FAIR      12   1  62 NW41G51   30.19F WCI -12
COTTONWOOD PAS FAIR      36  10  35 W12G25    30.27R
GUNNISON       FAIR      32  15  49 N3        30.32R
KREMMLING      FAIR      32  21  64 CALM      30.29R
LEADVILLE      FAIR      25  10  53 N10       30.28R WCI  15
MONARCH PASS   FAIR      19   5  53 W32G38    30.41R WCI   0
SALIDA         FAIR      41   9  26 NW15      30.31R
SUNLIGHT       FAIR      19  12  73 SW10G16   30.37R WCI   8
WILKERSON PASS MOCLDY    23   1  39 W7        30.28S WCI  15
$$

COZ069>075-220400-
...SAN LUIS VALLEY/SANGRE DE CRISTO MOUNTAINS...

CITY           SKY/WX    TMP DP  RH WIND       PRES   REMARKS
ALAMOSA        FAIR      33   4  29 N5        30.25R WCI  29
DEL NORTE      FAIR      34   6  30 S5        30.26R WCI  30
LA VETA PASS   FAIR      30   3  31 SW14      30.38R WCI  20
SAGUACHE       FAIR      36   9  32 NW9G16    30.27R
$$

COZ035-036-038>040-220400-
...NORTHERN COLORADO FRONT RANGE...

CITY           SKY/WX    TMP DP  RH WIND       PRES   REMARKS
DENVER INTL AP FAIR      36  11  35 SE7       30.14S
DMNS CITY PARK   N/A     43  13  29 SE6       30.13S
AURORA         CLEAR     34  13  43 S10       30.16R WCI  26
FRONT RANGE AP PTCLDY    37  12  35 CALM      30.16S
ERIE MUNI ARPT FAIR      42  12  30 SE5       30.18S
BOULDER MUN AP FAIR      39  14  35 N3        30.12S
CENTENNIAL     FAIR      39  12  33 SE9       30.15S
BROOMFIELD     CLEAR     45  12  26 W5        30.13F
FORT COLLINS   FAIR      36  18  48 S7        30.12S
LONGMONT       NOT AVBL
$$

COZ041-046-047-076>085-087-088-220400-
...PIKES PEAK/PALMER DIVIDE AND SOUTHERN FOOTHILLS...

CITY           SKY/WX    TMP DP  RH WIND       PRES   REMARKS
COLO. SPRINGS  FAIR      42   7  23 NW8       30.17R
A. F. ACADEMY  FAIR      44  -1  15 NW16G25   30.17R
SCHRIEVER AFB  FAIR      33   9  36 NE7       30.18R WCI  27
CHEYENNE MTN   FAIR      42   2  19 NW5       30.12R
ELLICOTT         N/A    N/A N/A N/A N6        30.16R
FALCON         FAIR      35   7  31 N6        30.19R WCI  30
FORT CARSON    FAIR      40   8  26 CALM      30.15R
LIMON          FAIR      30  12  47 CALM      30.16R
MONUMENT HILL  FAIR      27  12  54 CALM      30.20R
CANON CITY     FAIR      41  10  28 CALM      30.17R
WALSENBURG     FAIR      43  12  28 W13       30.17S
TRINIDAD       FAIR      36  26  67 NW9       30.17R
$$

COZ042>045-048>051-090-091-220400-
...NORTHEAST COLORADO...

CITY           SKY/WX    TMP DP  RH WIND       PRES   REMARKS
GREELEY ARPT   FAIR      38  19  46 CALM      30.12S
AKRON          FAIR      41  15  35 NW10      30.12S
BURLINGTON     FAIR      34  15  46 W8        30.10R WCI  27
WRAY           FAIR      43  18  36 W10       30.10S
YUMA           NOT AVBL
STERLING       NOT AVBL
HOLYOKE        FAIR      43  19  39 W10       30.09S
FORT MORGAN    FAIR      40  13  33 N13       30.12F
$$

COZ086-089-092>099-220400-
...SOUTHEAST COLORADO...

CITY           SKY/WX    TMP DP  RH WIND       PRES   REMARKS
PUEBLO         FAIR      40  14  34 N9        30.15R
LA JUNTA       FAIR      44  15  31 N8        30.13R
LAMAR          FAIR      38  13  35 CALM      30.10R
SPRINGFIELD      N/A     35  19  52 NW9       30.11R WCI  28
$$



USA.gov is the U.S. government's official web portal to all federal, state and local government web resources and services.